Location: C.E.K. Mees Observatory
(42.7003°N, 77.4088°W)
Time: 18:19:50
(UTC-04:00)

OTV 5 (USA 277) - Pass Details

Date: 14 October 2017
Orbit: 404 x 417 km, 43.0° (Epoch: 07 September)

Event Time Altitude Azimuth Distance (km) Brightness Sun altitude
Rises 19:32:36 0° 260° (W) 2,350 ? -12.6°
Reaches altitude 10° 19:34:42 10° 260° (W) 1,488 ? -12.9°
Maximum altitude 19:38:04 87° 174° (S) 420 ? -13.6°
Enters shadow 19:39:45 27° 83° (E) 827 ? -13.9°
